When you browse on this site, cookies collect data to enhance your experience and personalize the content and advertising you see.
Visit our Privacy Policy to learn more. By continuing to use the site, you agree to this use of cookies and data.
  • In Lithuania
  • List of Countries
  • For 7 days
  • Water Temperature
  • Weather Map
  • Weather Widgets
  • user-avatar
    Login

    Hourly Weather Mutare

    Today, 17 January, Friday

    Time Temperature Precipitation Wind Pressure Humidity
    00:00 +19°C° 0.1 mm 1 mps 651 mmHg 97%
    01:00 +19°C° 0.1 mm 1 mps 651 mmHg 97%
    02:00 +17°C° 0 mm 0 mps 651 mmHg 96%
    03:00 +17°C° 0 mm 0 mps 651 mmHg 97%
    04:00 +19°C° 0 mm 1 mps 650 mmHg 97%
    05:00 +18°C° 0 mm 1 mps 650 mmHg 98%
    06:00 +20°C° 0 mm 1 mps 651 mmHg 92%
    07:00 +21°C° 0 mm 1 mps 652 mmHg 87%
    08:00 +23°C° 0 mm 1 mps 653 mmHg 82%
    09:00 +24°C° 0.1 mm 1 mps 652 mmHg 76%
    10:00 +25°C° 0.1 mm 1 mps 652 mmHg 70%
    11:00 +27°C° 0.1 mm 1 mps 652 mmHg 64%
    12:00 +27°C° 0.7 mm 2 mps 652 mmHg 66%
    13:00 +27°C° 0.7 mm 2 mps 651 mmHg 69%
    14:00 +27°C° 0.7 mm 3 mps 650 mmHg 71%
    15:00 +26°C° 1.4 mm 3 mps 650 mmHg 75%
    16:00 +25°C° 1.4 mm 3 mps 649 mmHg 79%
    17:00 +24°C° 1.4 mm 3 mps 649 mmHg 82%
    18:00 +22°C° 0.6 mm 3 mps 649 mmHg 87%
    19:00 +21°C° 0.6 mm 2 mps 649 mmHg 92%
    20:00 +20°C° 0.6 mm 2 mps 650 mmHg 97%
    21:00 +20°C° 0.1 mm 2 mps 650 mmHg 97%
    22:00 +20°C° 0.1 mm 2 mps 650 mmHg 97%
    23:00 +20°C° 0.1 mm 2 mps 650 mmHg 97%

    Tomorrow, 18 January, Saturday

    Time Temperature Precipitation Wind Pressure Humidity
    00:00 +21°C° 0.3 mm 1 mps 650 mmHg 97%
    01:00 +20°C° 0.3 mm 1 mps 649 mmHg 97%
    02:00 +20°C° 0.3 mm 1 mps 649 mmHg 97%
    03:00 +20°C° 0.1 mm 1 mps 649 mmHg 97%
    04:00 +20°C° 0.1 mm 1 mps 649 mmHg 97%
    05:00 +18°C° 0.1 mm 0 mps 649 mmHg 97%
    06:00 +19°C° 0.1 mm 0 mps 649 mmHg 93%
    07:00 +22°C° 0.1 mm 1 mps 650 mmHg 90%
    08:00 +23°C° 0.1 mm 1 mps 650 mmHg 86%
    09:00 +24°C° 0.4 mm 1 mps 650 mmHg 83%
    10:00 +25°C° 0.4 mm 1 mps 650 mmHg 79%
    11:00 +26°C° 0.4 mm 1 mps 650 mmHg 76%
    12:00 +26°C° 2.3 mm 1 mps 649 mmHg 77%
    13:00 +26°C° 2.3 mm 1 mps 648 mmHg 78%
    14:00 +26°C° 2.3 mm 1 mps 648 mmHg 80%
    15:00 +26°C° 2.3 mm 1 mps 647 mmHg 83%
    16:00 +25°C° 2.3 mm 1 mps 647 mmHg 87%
    17:00 +24°C° 2.3 mm 1 mps 647 mmHg 91%
    18:00 +23°C° 2.1 mm 1 mps 647 mmHg 92%
    19:00 +23°C° 2.1 mm 1 mps 647 mmHg 92%
    20:00 +22°C° 2.1 mm 1 mps 647 mmHg 93%
    21:00 +21°C° 1.1 mm 1 mps 647 mmHg 95%
    22:00 +21°C° 1.1 mm 1 mps 647 mmHg 96%
    23:00 +21°C° 1.1 mm 1 mps 647 mmHg 97%

    Day after tomorrow, 19 January, Sunday

    Time Temperature Precipitation Wind Pressure Humidity
    00:00 +21°C° 0.5 mm 1 mps 647 mmHg 97%
    01:00 +21°C° 0.5 mm 1 mps 647 mmHg 97%
    02:00 +21°C° 0.5 mm 1 mps 646 mmHg 98%
    03:00 +21°C° 0.7 mm 1 mps 646 mmHg 98%
    04:00 +19°C° 0.7 mm 0 mps 646 mmHg 97%
    05:00 +19°C° 0.7 mm 0 mps 646 mmHg 97%
    06:00 +19°C° 0.5 mm 0 mps 647 mmHg 96%
    07:00 +19°C° 0.5 mm 0 mps 647 mmHg 96%
    08:00 +19°C° 0.5 mm 0 mps 647 mmHg 95%
    09:00 +20°C° 0.3 mm 0 mps 647 mmHg 92%
    10:00 +21°C° 0.3 mm 0 mps 648 mmHg 88%
    11:00 +24°C° 0.3 mm 1 mps 648 mmHg 85%
    12:00 +24°C° 1.2 mm 1 mps 647 mmHg 86%
    13:00 +24°C° 1.2 mm 1 mps 647 mmHg 88%
    14:00 +24°C° 1.2 mm 1 mps 647 mmHg 89%
    15:00 +23°C° 3 mm 1 mps 647 mmHg 92%
    16:00 +22°C° 3 mm 1 mps 647 mmHg 95%
    17:00 +21°C° 3 mm 1 mps 647 mmHg 98%
    18:00 +21°C° 4.2 mm 1 mps 647 mmHg 98%
    19:00 +21°C° 4.2 mm 1 mps 648 mmHg 98%
    20:00 +21°C° 4.2 mm 1 mps 648 mmHg 99%
    21:00 +21°C° 5.8 mm 1 mps 649 mmHg 99%
    22:00 +20°C° 5.8 mm 1 mps 649 mmHg 99%
    23:00 +20°C° 5.8 mm 1 mps 649 mmHg 99%

    20 January, Monday

    Time Temperature Precipitation Wind Pressure Humidity
    00:00 +20°C° 2.8 mm 1 mps 649 mmHg 99%
    01:00 +20°C° 2.8 mm 1 mps 649 mmHg 99%
    02:00 +20°C° 2.8 mm 1 mps 649 mmHg 99%
    03:00 +20°C° 1.7 mm 1 mps 649 mmHg 99%
    04:00 +20°C° 1.7 mm 1 mps 649 mmHg 99%
    05:00 +20°C° 1.7 mm 1 mps 649 mmHg 98%
    06:00 +18°C° 0.8 mm 2 mps 650 mmHg 98%
    07:00 +18°C° 0.8 mm 2 mps 650 mmHg 98%
    08:00 +17°C° 0.8 mm 2 mps 651 mmHg 98%
    09:00 +17°C° 0.1 mm 2 mps 651 mmHg 97%
    10:00 +17°C° 0.1 mm 2 mps 651 mmHg 97%
    11:00 +17°C° 0.1 mm 2 mps 651 mmHg 96%
    12:00 +18°C° 0 mm 2 mps 651 mmHg 94%
    13:00 +18°C° 0 mm 2 mps 650 mmHg 93%
    14:00 +19°C° 0 mm 2 mps 650 mmHg 91%
    15:00 +19°C° 0 mm 2 mps 650 mmHg 90%
    16:00 +19°C° 0 mm 2 mps 650 mmHg 88%
    17:00 +19°C° 0 mm 2 mps 650 mmHg 87%
    18:00 +19°C° 0 mm 2 mps 651 mmHg 89%
    19:00 +19°C° 0 mm 1 mps 651 mmHg 91%
    20:00 +19°C° 0 mm 1 mps 651 mmHg 93%
    21:00 +19°C° 0 mm 1 mps 651 mmHg 94%
    22:00 +18°C° 0 mm 1 mps 651 mmHg 95%
    23:00 +18°C° 0 mm 1 mps 651 mmHg 96%

    21 January, Tuesday

    Time Temperature Precipitation Wind Pressure Humidity
    00:00 +18°C° 0 mm 1 mps 651 mmHg 95%
    01:00 +18°C° 0 mm 1 mps 651 mmHg 95%
    02:00 +18°C° 0 mm 1 mps 651 mmHg 95%
    03:00 +17°C° 0 mm 2 mps 651 mmHg 95%
    04:00 +17°C° 0 mm 2 mps 651 mmHg 95%
    05:00 +17°C° 0 mm 2 mps 651 mmHg 95%
    06:00 +17°C° 0 mm 2 mps 652 mmHg 93%
    07:00 +17°C° 0 mm 2 mps 652 mmHg 91%
    08:00 +17°C° 0 mm 2 mps 652 mmHg 90%
    09:00 +18°C° 0 mm 2 mps 652 mmHg 85%
    10:00 +19°C° 0 mm 2 mps 652 mmHg 80%
    11:00 +20°C° 0 mm 2 mps 653 mmHg 75%
    12:00 +21°C° 0 mm 3 mps 652 mmHg 71%
    13:00 +22°C° 0 mm 3 mps 652 mmHg 66%
    14:00 +24°C° 0 mm 3 mps 652 mmHg 62%
    15:00 +24°C° 0 mm 3 mps 651 mmHg 65%
    16:00 +22°C° 0 mm 3 mps 651 mmHg 68%
    17:00 +21°C° 0 mm 3 mps 651 mmHg 71%
    18:00 +20°C° 0 mm 2 mps 651 mmHg 77%
    19:00 +19°C° 0 mm 1 mps 651 mmHg 83%
    20:00 +16°C° 0 mm 0 mps 651 mmHg 89%
    21:00 +15°C° 0 mm 0 mps 651 mmHg 89%
    22:00 +15°C° 0 mm 0 mps 652 mmHg 89%
    23:00 +15°C° 0 mm 0 mps 652 mmHg 88%

    22 January, Wednesday

    Time Temperature Precipitation Wind Pressure Humidity
    00:00 +15°C° 0 mm 0 mps 651 mmHg 91%
    01:00 +14°C° 0 mm 0 mps 651 mmHg 93%
    02:00 +15°C° 0 mm 1 mps 651 mmHg 96%
    03:00 +15°C° 0 mm 1 mps 650 mmHg 96%
    04:00 +14°C° 0 mm 1 mps 650 mmHg 97%
    05:00 +14°C° 0 mm 1 mps 650 mmHg 98%
    06:00 +15°C° 0 mm 1 mps 651 mmHg 94%
    07:00 +16°C° 0 mm 1 mps 651 mmHg 90%
    08:00 +18°C° 0 mm 1 mps 652 mmHg 86%
    09:00 +19°C° 0 mm 1 mps 652 mmHg 81%
    10:00 +20°C° 0 mm 1 mps 652 mmHg 75%
    11:00 +22°C° 0 mm 1 mps 652 mmHg 70%
    12:00 +23°C° 0 mm 1 mps 652 mmHg 67%
    13:00 +23°C° 0 mm 1 mps 651 mmHg 65%
    14:00 +24°C° 0 mm 1 mps 651 mmHg 63%
    15:00 +24°C° 0.1 mm 1 mps 651 mmHg 66%
    16:00 +23°C° 0.1 mm 1 mps 650 mmHg 68%
    17:00 +23°C° 0.1 mm 1 mps 650 mmHg 70%
    18:00 +21°C° 0.1 mm 1 mps 650 mmHg 78%
    19:00 +20°C° 0.1 mm 1 mps 650 mmHg 85%
    20:00 +18°C° 0.1 mm 1 mps 650 mmHg 92%
    21:00 +18°C° 0 mm 1 mps 650 mmHg 92%
    22:00 +16°C° 0 mm 1 mps 651 mmHg 92%
    23:00 +16°C° 0 mm 1 mps 651 mmHg 92%
    Show more